ASIASAT 6

Last updated on Thu Aug 13 2026 00:02:59 GMT+0000 (Coordinated Universal Time)

1 40141U 14052A 26224.63210166 .00000000 00000+0 00000+0 0 9991 2 40141 0.0160 98.5695 0000876 51.8389 158.1430 1.00268990 43640
UTC large
Height (km)
Speed (km/s)
/
Latitude / Longitude
Inclination (degrees)
Orbital Period (minutes)
Azimuth
Elevation
Range (km)
Doppler Factor

Next 0 passes for location: London (51.5072 / 0.1276)

No passes found over London.
ASIASAT 6